Location: Hains Lake
(37.8540°N, 99.8578°W)
Time: 04:43:29
(UTC+00:00)

Vanguard 2 Rocket - Pass Details

Date: 26 April 2021
Orbit: 553 x 3326 km, 32.9° (Epoch: 07 May)

Event Time Altitude Azimuth Distance (km) Brightness Sun altitude
Rises 14:52:00 0° 180° (S) 4,614 10.6 34.8°
Reaches altitude 10° 14:56:40 10° 158° (SSE) 4,159 10.8 35.7°
Maximum altitude 15:02:39 15° 127° (SE) 4,333 11.5 36.9°
Drops below altitude 10° 15:10:06 10° 98° (E) 5,416 12.1 38.3°
Sets 15:17:51 0° 80° (E) 6,928 12.1 39.8°
